Home   Weather   Waynesville   Past weeks
Flag for USA

Past Weather in Waynesville, North Carolina, USA — Yesterday and Last 2 Weeks

Now
51 °F

Clear.


Feels Like: 48 °F
Forecast: 72 / 41 °F
Wind: 8 mph from North

Location: Asheville Regional Airport

Current Time: Oct 14, 2019 at 6:34:36 am

Latest Report: Oct 14, 2019 at 5:54 am


Visibility: 10 mi

Pressure: 30.04 "Hg (27.21 "Hg at 821m altitude)

Humidity: 74%

Dew Point: 43 °F

Location of WaynesvilleLocation

Past Weather in Waynesville — Graph

°F

Waynesville Temperature Yesterday

Maximum temperature yesterday: 69 °F (at 4:54 pm)
Minimum temperature yesterday: 54 °F (at 4:54 am)
Average temperature yesterday: 60 °F

High & Low Weather Summary for the Past Weeks

 TemperatureHumidityPressure
High90 °F (Oct 2, 3:54 pm)97% (Sep 29, 4:18 am)30.32 "Hg (Sep 29, 4:18 am)
Low51 °F (Oct 14, 4:54 am)32% (Oct 3, 4:54 pm)29.97 "Hg (Oct 2, 4:54 pm)
Average66 °F80%30.14 "Hg
* Reported Sep 29 4:18 am — Oct 14 4:54 am, Waynesville. Weather by CustomWeather, © 2019

Note: Actual official high and low records may vary slightly from our data, if they occured in-between our weather recording intervals... More about our weather records

Advertising

Waynesville Weather History for the Previous 24 Hours

Scroll right to see more
 ConditionsComfort  
Time TempWeatherWind HumidityBarometerVisibility
4:54 am
Mon, Oct 14
51 °FClear.No wind77%30.03 "Hg10 mi
3:54 am53 °FClear.7 mph77%30.02 "Hg10 mi
2:54 am54 °FClear.8 mph77%30.02 "Hg10 mi
1:54 am52 °FClear.No wind86%30.03 "Hg10 mi
12:54 am54 °FClear.No wind83%30.03 "Hg10 mi
11:54 pm
Sun, Oct 13
57 °FClear.5 mph78%30.03 "Hg10 mi
10:54 pm58 °FClear.No wind84%30.02 "Hg10 mi
9:54 pm61 °FClear.3 mph72%30.01 "Hg10 mi
8:54 pm64 °FPassing clouds.No wind78%30.00 "Hg10 mi
7:54 pm64 °FClear.7 mph84%30.00 "Hg10 mi
6:54 pm66 °FPassing clouds.No wind81%29.98 "Hg10 mi
5:54 pm67 °FSunny.9 mph79%29.98 "Hg10 mi
4:54 pm69 °FSunny.12 mph76%29.97 "Hg10 mi
4:01 pm67 °FPassing clouds.8 mph81%30.01 "Hg10 mi
2:54 pm65 °FFog.5 mph87%29.98 "Hg6 mi
2:28 pm65 °FMostly cloudy.5 mph85%30.03 "Hg4 mi
2:01 pm63 °FMostly cloudy.No wind84%30.04 "Hg4 mi
1:03 pm62 °FLight rain. Fog.7 mph86%30.06 "Hg2 mi
12:54 pm62 °FLow clouds.5 mph86%30.03 "Hg10 mi
11:54 am61 °FFog.No wind87%30.04 "Hg6 mi
11:37 am60 °FFog.No wind90%30.08 "Hg6 mi
10:54 am59 °FOvercast.No wind87%30.05 "Hg10 mi
10:27 am58 °FMore clouds than sun.No wind87%30.09 "Hg10 mi
10:13 am57 °FLight rain. Cloudy.No wind90%30.09 "Hg9 mi
9:54 am57 °FHeavy rain. Fog.No wind87%30.05 "Hg1 mi
8:54 am56 °FOvercast.No wind87%30.05 "Hg10 mi
7:54 am55 °FOvercast.3 mph90%30.03 "Hg10 mi
7:25 am56 °FMostly cloudy.No wind87%30.07 "Hg10 mi
6:54 am55 °FOvercast.3 mph87%30.03 "Hg10 mi
Weather by CustomWeather, © 2019

See weather overview